Weather History for South Bend, IN

Change the Weather History Date:

Tuesday, March 26, 2013

  Actual Average Record
Temperature  
Mean Temperature 35 °F 41 °F  
Max Temperature 40 °F 51 °F 79 °F (2007)
Min Temperature 29 °F 32 °F 10 °F (1965)
Degree Days  
Heating Degree Days 30 24  
Month to date heating degree days 884 742  
Since 1 July heating degree days 5281 5431  
Cooling Degree Days 0 0  
Month to date cooling degree days 0 0  
Year to date cooling degree days 0 0  
Moisture  
Dew Point 28 °F    
Average Humidity 74    
Maximum Humidity 89    
Minimum Humidity 59    
Precipitation  
Precipitation 0.02 in 0.08 in 1.39 in (1959)
Month to date precipitation 1.26 2.00  
Year to date precipitation 8.75 6.24  
Snow  
Snow 0.10 in - - ()
Month to date snowfall 12.2  
Snow Depth 0.00 in    
Sea Level Pressure  
Sea Level Pressure 30.14 in    
Wind  
Wind Speed 10 mph (NW)    
Max Wind Speed 20 mph    
Max Gust Speed 24 mph    
Visibility 8 miles    
Events Fog , Snow    
T = Trace of Precipitation, MM = Missing Value Source: NWS Daily Summary

Daily Weather History Graph

Daily Weather History Graph

Search for Another Location

Airport:

Trip Planner

Search our weather history database for the weather conditions in past years. The results will help you decide how hot, cold, wet, or windy it might be!

Date:

Astronomy

Mar. 26, 2013 Rise Set
Actual Time 7:37 AM EDT 8:04 PM EDT
Civil Twilight 7:10 AM EDT 8:32 PM EDT
Nautical Twilight 6:37 AM EDT 9:05 PM EDT
Astronomical Twilight 6:03 AM EDT 9:38 PM EDT
Moon 7:40 PM EDT (3/26) 6:54 AM EDT (3/26)
Length of Visible Light 13h 22m
Length of Day
12h 26m
Waxing Gibbous, 99% of the Moon is Illuminated
Mar 26
Waxing Gibbous
Mar 27
Full
Apr 3
Last Quarter
Apr 10
New
Apr 18
First Quarter

Hourly Weather History & Observations

Time (EDT) Temp. Windchill Dew Point Humidity Pressure Visibility Wind Dir Wind Speed Gust Speed Precip Events Conditions
12:54 AM 34.0 °F 26.0 °F 26.1 °F 73% 30.03 in 10.0 mi NNW 10.4 mph - N/A   Overcast
1:54 AM 33.1 °F 25.5 °F 26.1 °F 75% 30.04 in 10.0 mi NNW 9.2 mph - N/A   Overcast
2:54 AM 33.1 °F 26.1 °F 26.1 °F 75% 30.04 in 10.0 mi NNW 8.1 mph - N/A   Overcast
3:54 AM 32.0 °F 25.6 °F 26.1 °F 79% 30.05 in 10.0 mi NW 6.9 mph - N/A   Overcast
4:54 AM 32.0 °F 24.2 °F 28.0 °F 85% 30.05 in 10.0 mi NW 9.2 mph - N/A   Overcast
5:54 AM 32.0 °F 25.6 °F 28.9 °F 88% 30.07 in 10.0 mi NW 6.9 mph - N/A   Overcast
6:54 AM 33.1 °F 25.5 °F 28.0 °F 82% 30.08 in 10.0 mi NNW 9.2 mph - N/A   Overcast
7:54 AM 30.9 °F 23.5 °F 27.0 °F 85% 30.11 in 10.0 mi NNW 8.1 mph - N/A   Scattered Clouds
8:27 AM 33.8 °F 27.7 °F 28.4 °F 81% 30.09 in 8.0 mi NW 6.9 mph - N/A   Overcast
8:54 AM 34.0 °F 28.0 °F 30.0 °F 85% 30.13 in 10.0 mi WNW 6.9 mph - N/A   Overcast
9:13 AM 33.8 °F 25.8 °F 30.2 °F 87% 30.11 in 10.0 mi NW 10.4 mph - N/A   Overcast
9:26 AM 33.8 °F 25.8 °F 30.2 °F 87% 30.11 in 1.2 mi NW 10.4 mph - 0.00 in Snow Light Snow
9:29 AM 32.0 °F 21.6 °F 30.2 °F 93% 30.12 in 0.5 mi NNW 15.0 mph - 0.00 in Fog , Snow Snow
9:36 AM 32.0 °F 23.6 °F 28.4 °F 87% 30.12 in 0.8 mi NNW 10.4 mph - 0.01 in Snow Light Snow
9:39 AM 32.0 °F 22.5 °F 28.4 °F 87% 30.12 in 2.0 mi NNW 12.7 mph - 0.01 in Snow Light Snow
9:41 AM 33.8 °F 24.8 °F 28.4 °F 81% 30.12 in 3.0 mi North 12.7 mph - 0.01 in Snow Light Snow
9:43 AM 33.8 °F 24.3 °F 28.4 °F 81% 30.12 in 1.8 mi North 13.8 mph - 0.01 in Snow Light Snow
9:48 AM 32.0 °F 23.6 °F 30.2 °F 93% 30.12 in 0.5 mi NNW 10.4 mph - 0.01 in Fog , Snow Snow
9:52 AM 32.0 °F 24.2 °F 28.4 °F 87% 30.12 in 0.5 mi NNW 9.2 mph - 0.01 in Fog , Snow Light Snow
9:54 AM 32.0 °F 24.2 °F 28.9 °F 88% 30.15 in 0.8 mi NNW 9.2 mph - 0.01 in Snow Light Snow
9:56 AM 33.8 °F 26.4 °F 30.2 °F 87% 30.12 in 1.2 mi NNW 9.2 mph - 0.00 in Snow Light Snow
10:11 AM 33.8 °F 27.0 °F 30.2 °F 87% 30.13 in 3.0 mi NNW 8.1 mph - 0.01 in Snow Light Snow
10:54 AM 35.1 °F 27.4 °F 30.0 °F 82% 30.16 in 10.0 mi NNW 10.4 mph - 0.01 in   Overcast
11:05 AM 35.6 °F 25.9 °F 28.4 °F 75% 30.13 in 10.0 mi NNW 16.1 mph - N/A   Overcast
11:54 AM 37.0 °F 27.4 °F 27.0 °F 67% 30.16 in 10.0 mi NNW 17.3 mph - N/A   Overcast
12:09 PM 37.4 °F 28.5 °F 26.6 °F 65% 30.14 in 10.0 mi NW 15.0 mph 20.7 mph N/A   Overcast
12:35 PM 39.2 °F 30.8 °F 26.6 °F 61% 30.14 in 10.0 mi NW 15.0 mph - N/A   Mostly Cloudy
12:54 PM 39.0 °F 31.4 °F 26.1 °F 60% 30.17 in 10.0 mi NW 12.7 mph 21.9 mph N/A   Mostly Cloudy
1:54 PM 37.9 °F 29.6 °F 27.0 °F 65% 30.17 in 10.0 mi NW 13.8 mph 23.0 mph N/A   Overcast
2:38 PM 35.6 °F 25.9 °F 28.4 °F 75% 30.16 in 5.0 mi NW 16.1 mph - 0.00 in Snow Light Snow
2:54 PM 36.0 °F 27.1 °F 28.9 °F 76% 30.18 in 9.0 mi NW 13.8 mph - 0.00 in   Overcast
3:54 PM 36.0 °F 28.5 °F 27.0 °F 70% 30.18 in 10.0 mi WNW 10.4 mph - N/A   Overcast
4:54 PM 36.0 °F 28.0 °F 27.0 °F 70% 30.19 in 10.0 mi WNW 11.5 mph - N/A   Overcast
5:54 PM 36.0 °F 27.1 °F 27.0 °F 70% 30.19 in 10.0 mi NW 13.8 mph - N/A   Overcast
6:54 PM 36.0 °F 28.5 °F 27.0 °F 70% 30.20 in 10.0 mi NW 10.4 mph - N/A   Overcast
7:47 PM 35.6 °F 28.6 °F 26.6 °F 70% 30.18 in 10.0 mi NW 9.2 mph - N/A   Overcast
7:54 PM 35.1 °F 27.9 °F 27.0 °F 72% 30.21 in 10.0 mi NW 9.2 mph - N/A   Overcast
7:58 PM 35.6 °F 28.0 °F 26.6 °F 70% 30.18 in 10.0 mi NW 10.4 mph - N/A   Mostly Cloudy
8:31 PM 35.6 °F 29.2 °F 26.6 °F 70% 30.19 in 10.0 mi WNW 8.1 mph - N/A   Overcast
8:54 PM 35.1 °F 27.9 °F 28.0 °F 76% 30.22 in 10.0 mi WNW 9.2 mph - N/A   Overcast
9:54 PM 34.0 °F 28.8 °F 28.0 °F 79% 30.24 in 10.0 mi NW 5.8 mph - N/A   Overcast
10:36 PM 30.2 °F 23.4 °F 26.6 °F 86% 30.21 in 10.0 mi WNW 6.9 mph - N/A   Overcast
10:54 PM 30.9 °F 24.3 °F 27.0 °F 85% 30.24 in 10.0 mi WNW 6.9 mph - N/A   Overcast
11:54 PM 30.0 °F 24.1 °F 27.0 °F 88% 30.24 in 10.0 mi WNW 5.8 mph - N/A   Overcast